Flag for U.S.A. Weather past 2 weeks in Everett, Washington, U.S.A.

Now
65 °F

Light rain. Overcast.


Feels Like: 65 °F
Forecast: 58 / 68 °F
Wind: 13 mph from South

Location: Snohomish County Airport

Current Time: Sep 23, 2014 at 3:46:47 PM

Latest Report: Sep 23, 2014 at 2:53 PM


Visibility: 10 mi

Pressure: 29.81 "Hg

Humidity: 76%

Dew point: 57 °F

Location of EverettLocation

Historic Weather in Everett — Graph

°F

Everett temperature yesterday

Maximum temperature yesterday: 69 °F (at 5:53 PM)
Minimum temperature yesterday: 61 °F (at 12:53 AM)
Average temperature yesterday: 64 °F

Past Weeks' High & Low Weather Summary

 TemperatureHumidityPressure
High80 °F (Sep 15, 2:53 PM)100% (Sep 18, 9:04 AM)30.32 "Hg (Sep 18, 9:04 AM)
Low48 °F (Sep 12, 6:53 AM)22% (Sep 11, 11:53 AM)29.71 "Hg (Sep 17, 4:53 PM)
Average62 °F67%29.97 "Hg
* Reported Sep 8 1:53 PM — Sep 23 1:53 PM, Everett, Weather by CustomWeather, © 2014

Note: Actual official high and low records may vary slightly from our data, if they occured in-between our weather recording intervals... More about our weather records

Advertising

Everett weather history for previous 24 hours

 ConditionsComfort  
Time TempWeatherWind HumidityBarometerVisibility
1:53 PM
Sep 23
67 °FLight rain. Mostly cloudy.10 mph76%29.82 "Hg10 mi
12:53 PM66 °FPassing clouds.6 mph78%29.83 "Hg10 mi
11:53 AM65 °FLight rain. More clouds than sun.7 mph76%29.84 "Hg10 mi
10:53 AM65 °FScattered clouds.10 mph76%29.85 "Hg10 mi
9:53 AM64 °FPartly sunny.8 mph75%29.83 "Hg10 mi
8:53 AM62 °FPartly sunny.8 mph80%29.83 "Hg10 mi
7:53 AM61 °FPassing clouds.3 mph83%29.83 "Hg10 mi
6:53 AM60 °FPassing clouds.9 mph86%29.84 "Hg10 mi
5:53 AM62 °FOvercast.7 mph78%29.85 "Hg10 mi
4:53 AM61 °FPassing clouds.8 mph81%29.85 "Hg10 mi
3:53 AM60 °FPassing clouds.8 mph83%29.87 "Hg10 mi
2:53 AM62 °FPassing clouds.3 mph78%29.88 "Hg10 mi
1:53 AM59 °FPassing clouds.5 mph81%29.92 "Hg10 mi
12:53 AM61 °FClear.No wind78%29.90 "Hg10 mi
11:53 PM
Sep 22
63 °FPassing clouds.No wind73%29.91 "Hg10 mi
10:53 PM62 °FPassing clouds.No wind75%29.93 "Hg10 mi
9:53 PM64 °FClear.No wind70%29.93 "Hg10 mi
8:53 PM65 °FPassing clouds.3 mph68%29.93 "Hg10 mi
7:53 PM65 °FPartly sunny.6 mph68%29.94 "Hg10 mi
6:53 PM65 °FPassing clouds.3 mph68%29.94 "Hg10 mi
5:53 PM69 °FPartly sunny.6 mph59%29.95 "Hg10 mi
4:53 PM68 °FOvercast.7 mph61%29.96 "Hg10 mi
3:53 PM66 °FOvercast.6 mph65%29.97 "Hg10 mi
Weather by CustomWeather, © 2014

See weather overviewHow to use our weather pages